Regional Weather Roundup
Issued by NWS

Home | Current Version | Previous Version | Text Only | Print | Product List | Glossary Off
Versions: 1 2 3 4 5 6 7 8 9 10 11 12 13 14 15 16 17 18 19 20 21 22 23 24 25 26 27 28 29 30 31 32 33 34 35 36 37 38 39 40 41 42 43 44 45 46 47 48 49 50

000
ASUS45 KPSR 042000
RWRAZ

ARIZONA HOURLY REGIONAL WEATHER ROUNDUP
NATIONAL WEATHER SERVICE PHOENIX AZ
100 PM MST TUE AUG 04 2015

NOTE: FAIR INDICATES FEW OR NO CLOUDS BELOW 12,000 FEET WITH NO
SIGNIFICANT WEATHER AND/OR OBSTRUCTIONS TO VISIBILITY.

AZZ001>003-036-042100-
NORTHWEST ARIZONA

CITY           SKY/WX    TMP DP  RH WIND       PRES   REMARKS
KINGMAN        SUNNY     99  30   9 SW23G30   30.05F
$$

AZZ004>008-015-016-018-042100-
NORTH CENTRAL ARIZONA

CITY           SKY/WX    TMP DP  RH WIND       PRES   REMARKS
GRAND CANYON   SUNNY     85  30  13 MISG      30.29F
WILLIAMS       SUNNY     84  32  15 SW10G18   30.36F
PRESCOTT       MOSUNNY   91  34  13 S9G20     30.17F
FLAGSTAFF      NOT AVBL
PAYSON         SUNNY     90  37  15 W13G21    30.20F
PAGE           SUNNY     92  40  16 CALM      30.07F
$$

AZZ009>014-017-042100-
NORTHEAST ARIZONA

CITY           SKY/WX    TMP DP  RH WIND       PRES   REMARKS
WINSLOW        NOT AVBL
SAINT JOHNS    MOSUNNY   88  44  21 VRB5      30.21F
$$

AZZ023-042100-
GREATER PHOENIX AREA

CITY           SKY/WX    TMP DP  RH WIND       PRES   REMARKS
PHOENIX        MOSUNNY  107  42  11 W9        29.85F HX 102
GLENDALE       MOSUNNY  108  37   9 S8        29.87F HX 101
LUKE AFB       SUNNY    105  41  11 S8        29.84F HX 100
DEER VALLEY    SUNNY    103  46  14 VRB7      29.88F
SCOTTSDALE     SUNNY    104  45  13 W6        29.89F HX 100
MESA-FALCON    MOSUNNY  106  48  14 VRB6      29.87F HX 102
MESA-GATEWAY   MOSUNNY  104  50  16 W6        29.90F HX 101
CHANDLER       SUNNY    106  48  14 W6        29.87F HX 102
$$

AZZ027-028-042100-
SOUTHWEST MARICOPA COUNTY AND PINAL COUNTY

CITY           SKY/WX    TMP DP  RH WIND       PRES   REMARKS
CASA GRANDE    SUNNY    106  52  16 CALM      29.88F HX 103
$$

AZZ503-504-507>509-042100-
SOUTHEAST ARIZONA

CITY           SKY/WX    TMP DP  RH WIND       PRES   REMARKS
TUCSON         SUNNY    102  46  15 W6        29.99F
DAVIS-MONTHAN  SUNNY    100  53  21 NW6       29.97F
RYAN FIELD     SUNNY    102  50  17 W12G20    29.97F
NOGALES        SUNNY     94  55  26 VRB3      30.09F
SIERRA VISTA   SUNNY     91  45  20 VRB2      30.16F
SAFFORD        MOSUNNY  103  44  13 W12G20    29.98F
$$

AZZ020-021-025-026-031-042100-
SOUTHWEST ARIZONA

CITY           SKY/WX    TMP DP  RH WIND       PRES   REMARKS
YUMA           SUNNY    105  63  25 S7        29.80R HX 108
$$

CAZ031-033-041-043-047-048-061-042100-
SOUTHERN CALIFORNIA

CITY           SKY/WX    TMP DP  RH WIND       PRES   REMARKS
DOWNTOWN L.A.  SUNNY     86  65  49 VRB3      29.91F
L.A. AIRPORT   MOSUNNY   77  64  64 W13       29.94S
SAN DIEGO      SUNNY     80  63  55 NW6       29.93F
BURBANK        SUNNY     90  57  32 S10       29.92F
ONTARIO        MOSUNNY   91  55  29 VRB5      29.93F
RIVERSIDE      SUNNY     93  55  27 CALM      29.92F
PALM SPRINGS   SUNNY    108  31   7 VRB6      29.82F HX 100
EL CENTRO NAS  MOSUNNY  107  40  10 VRB7      29.78F HX 101
IMPERIAL       SUNNY    106  43  12 E7        29.77F HX 101
BLYTHE         SUNNY    107  50  15 S8        29.80F HX 104
$$

NVZ020-UTZ003-042100-
SOUTHERN NEVADA-UTAH

CITY           SKY/WX    TMP DP  RH WIND       PRES   REMARKS
LAS VEGAS      NOT AVBL
SALT LAKE CITY MOSUNNY   84  48  28 CALM      30.07F
$$

NMZ009-TXZ055-042100-
NEW MEXICO-WEST TEXAS

CITY           SKY/WX    TMP DP  RH WIND       PRES   REMARKS
ALBUQUERQUE    MOSUNNY   89  46  22 W7        30.17F
EL PASO        MOSUNNY   94  54  25 VRB6      30.06F
$$


........................KEY........................
SKY/WX - SKY CONDITION/WEATHER
TMP    - TEMPERATURE IN FAHRENHEIT
DP     - DEW POINT IN FAHRENHEIT
RH     - RELATIVE HUMIDITY IN PERCENT
WIND   - DIRECTION AND SPEED IN MILES PER HOUR (MPH)
VRB    - VARIABLE WIND DIRECTION
PRES   - MEAN SEA LEVEL PRESSURE IN INCHES OF MERCURY
         F - FALLING PRESSURE   R - RISING PRESSURE
         S - STEADY PRESSURE
VSB    - VISIBILITY IN MILES
HX     - HEAT INDEX IN FAHRENHEIT
WCI    - WIND CHILL INDEX IN FAHRENHEIT
TC     - TEMPERATURE IN CELSIUS WHICH IS ALSO KNOWN AS
         TEMPERATURE IN CENTIGRADE
AFB    - AIR FORCE BASE
         LUKE AFB IS LUKE AIR FORCE BASE
         DAVIS-MONTHAN IS DAVIS-MONTHAN AIR FORCE BASE
NAS    - NAVAL AIR STATION
         EL CENTRO NAS IS EL CENTRO NAVAL AIR STATION
N/A    - NOT AVAILABLE



USA.gov is the U.S. government's official web portal to all federal, state and local government web resources and services.